Regional Weather Roundup
Issued by NWS

Home | Current Version | Previous Version | Graphics & Text | Print | Product List | Glossary On
Versions: 1 2 3 4 5 6 7 8 9 10 11 12 13 14 15 16 17 18 19 20 21 22 23 24 25 26 27 28 29 30 31 32 33 34 35 36 37 38 39 40 41 42 43 44 45 46 47 48 49 50
237
ASUS45 KSLC 292010
RWRUT

UTAH REGIONAL WEATHER ROUNDUP
NATIONAL WEATHER SERVICE SALT LAKE CITY UT
200 PM MDT WED MAR 29 2017

UTZ001>011-023>025-292100-

NORTHERN UTAH

CITY           SKY/WX    TMP DP  RH WIND       PRES   REMARKS
BRIGHAM CITY   SUNNY     51  28  40 S3        30.21F
DUGWAY         MOSUNNY   53  34  47 W5        30.21F
HILL AFB       SUNNY     51  28  41 VRB7      30.20F
LOGAN          SUNNY     53  32  44 VRB3      30.19F
OGDEN          SUNNY     52  31  44 NW6       30.19F
SALT LAKE CITY MOSUNNY   54  29  38 E3        30.19F
TOOELE VALLEY  SUNNY     52  34  50 N7        30.21F
WENDOVER       SUNNY     53  31  42 E9        30.21F
HEBER CITY     SUNNY     54  27  35 E6        30.16F
WEST JORDAN    SUNNY     55  37  51 CALM      30.20F

$$

UTZ011>015-024>027-292100-

CENTRAL/NORTHEAST UTAH

CITY           SKY/WX    TMP DP  RH WIND       PRES   REMARKS
PROVO AIRPORT  SUNNY     50  29  44 W7        30.21F
MOAB/CANYONLAN SUNNY     59  25  27 W5        30.10F
DELTA          SUNNY     50  28  43 CALM      30.21F
PRICE          SUNNY     54  22  28 VRB3      30.13F
RICHFIELD      SUNNY     52  28  40 NE1G12    30.20F
ROOSEVELT      SUNNY     52  28  40 S3        30.16F
VERNAL         SUNNY     52  28  39 S8        30.15F

$$

UTZ013>016-019>022-027-292100-

SOUTHERN UTAH

CITY           SKY/WX    TMP DP  RH WIND       PRES   REMARKS
BRYCE CANYON   SUNNY     54  22  28 N16       30.19F
CEDAR CITY     SUNNY     54  29  38 MISG      30.18F
MILFORD        SUNNY     53  30  41 NE9G21    30.20F
ST GEORGE      CLEAR     66  25  21 VRB3      30.12F
HANKSVILLE     SUNNY     61  19  20 CALM      30.13F
KANAB          SUNNY     63  21  20 S6        30.16F
BLANDING       SUNNY     59  24  26 NW17G24   30.13F

$$

REGIONAL REPORTS     COLORADO/ARIZONA

CITY           SKY/WX    TMP DP  RH WIND       PRES   REMARKS
CRAIG, CO      PTSUNNY   47  28  47 W13       30.15F
GRAND JUNCTION SUNNY     59  24  26 VRB7      30.09F
RIFLE, CO      SUNNY     56  26  31 NW13G22   30.09F
MONTROSE, CO   SUNNY     52  28  39 NW7       30.11F
CORTEZ, CO     SUNNY     61  24  24 NE16G28   30.02F
COLORADO CITY    N/A     63  23  22 SW6       30.17F
PAGE, AZ       SUNNY     63  20  19 NW6       30.11F
GRAND CANYON   SUNNY     58  14  17 CALM      30.18S
KINGMAN, AZ    SUNNY     67  -3   6 VRB6      30.12F
FLAGSTAFF, AZ  SUNNY     57   9  14 E16       30.15F

$$

REGIONAL REPORTS    NEVADA/IDAHO/WYOMING

CITY           SKY/WX    TMP DP  RH WIND       PRES   REMARKS
LAS VEGAS, NV  MOSUNNY   71  20  14 VRB3      30.12F
ELY, NY        SUNNY     55  26  32 CALM      30.21F
ELKO, NV       MOSUNNY   56  30  37 SW13      30.19F
POCATELLO, ID  CLOUDY    55  34  45 SW14      30.15F
BURLEY, ID     CLOUDY    56  30  37 W12       30.14F
FORT BRIDGER,    N/A     51  26  37 W14       30.19F
EVANSTON, WY   SUNNY     46  25  43 SW10      30.18F
ROCK SPRINGS,  SUNNY     45  27  49 W16       30.14F
KEMMERER, WY     N/A     41  28  60 NW12G20   30.18S

$$




USA.gov is the U.S. government's official web portal to all federal, state and local government web resources and services.